Location: Chmeln�
(49.6483°N, 14.9871°E)
Time: 05:03:26
(UTC+00:00)

Cosmos 2026 Rocket - Pass Details

Date: 18 September 2020
Orbit: 940 x 1000 km, 82.9° (Epoch: 22 October)

Event Time Altitude Azimuth Distance (km) Brightness Sun altitude
Rises 19:55:48 0° 348° (NNW) 3,715 7.8 -26.2°
Reaches altitude 10° 19:58:20 10° 345° (NNW) 2,768 7.0 -26.6°
Maximum altitude 20:04:36 63° 267° (W) 1,110 4.3 -27.3°
Enters shadow 20:06:55 39° 203° (SSW) 1,456 4.7 -27.6°
